Weather History for Marshall, MI

Change the Weather History Date:

Tuesday, May 21, 2013

  Actual Average (KBTL) Record (KBTL)
Temperature  
Mean Temperature 72 °F 60 °F  
Max Temperature 81 °F 72 °F 83 °F (2014)
Min Temperature 63 °F 47 °F 37 °F (1997)
Degree Days  
Heating Degree Days 0 7  
Month to date heating degree days 192  
Since 1 July heating degree days 6581  
Cooling Degree Days 7 1  
Month to date cooling degree days 15  
Year to date cooling degree days 22  
Growing Degree Days 22 (Base 50)    
Moisture  
Dew Point 62 °F    
Average Humidity 70    
Maximum Humidity 93    
Minimum Humidity 49    
Precipitation  
Precipitation 0.00 in 0.13 in 1.30 in (2004)
Month to date precipitation 2.50  
Year to date precipitation 10.21  
Sea Level Pressure  
Sea Level Pressure 29.77 in    
Wind  
Wind Speed 7 mph (SSW)    
Max Wind Speed 25 mph    
Max Gust Speed 31 mph    
Visibility 10 miles    
Events Rain    
T = Trace of Precipitation, MM = Missing Value Source: NWS Daily Summary

Daily Weather History Graph

Daily Weather History Graph

Search for Another Location

Airport:

Trip Planner

Search our weather history database for the weather conditions in past years. The results will help you decide how hot, cold, wet, or windy it might be!

Date:

Astronomy

May. 21, 2013 Rise Set
Actual Time 6:12 AM EDT 9:00 PM EDT
Civil Twilight 5:40 AM EDT 9:33 PM EDT
Nautical Twilight 4:58 AM EDT 10:14 PM EDT
Astronomical Twilight 4:11 AM EDT 11:02 PM EDT
Moon 5:09 PM EDT (5/21) 3:44 AM EDT (5/21)
Length of Visible Light 15h 53m
Length of Day
14h 47m
Waxing Gibbous, 84% of the Moon is Illuminated
May 21
Waxing Gibbous
May 25
Full
May 31
Last Quarter
Jun 8
New
Jun 16
First Quarter

Hourly Weather History & Observations

Time (EDT) Temp. Heat Index Dew Point Humidity Pressure Visibility Wind Dir Wind Speed Gust Speed Precip Events Conditions
12:14 AM 74.7 °F - 64.9 °F 72% 29.83 in 10.0 mi South 4.6 mph - N/A   Clear
12:33 AM 74.3 °F - 64.8 °F 72% 29.83 in 10.0 mi South 5.8 mph - N/A   Clear
12:53 AM 73.0 °F - 64.8 °F 75% 29.81 in 10.0 mi South 5.8 mph - N/A   Clear
1:14 AM 72.5 °F - 64.8 °F 77% 29.81 in 10.0 mi South 3.5 mph - N/A   Clear
1:33 AM 72.0 °F - 64.6 °F 77% 29.81 in 10.0 mi South 3.5 mph - N/A   Clear
1:53 AM 72.9 °F - 64.6 °F 75% 29.81 in 10.0 mi South 5.8 mph - N/A   Clear
2:14 AM 73.2 °F - 64.6 °F 74% 29.81 in 10.0 mi South 5.8 mph - N/A   Clear
2:33 AM 73.9 °F - 64.9 °F 73% 29.80 in 10.0 mi South 6.9 mph - N/A   Clear
2:53 AM 74.3 °F - 64.8 °F 72% 29.79 in 10.0 mi South 9.2 mph - N/A   Clear
3:13 AM 74.1 °F - 64.9 °F 73% 29.78 in 10.0 mi South 9.2 mph - N/A   Clear
3:33 AM 74.1 °F - 65.1 °F 73% 29.78 in 10.0 mi South 9.2 mph - N/A   Clear
3:54 AM 73.2 °F - 65.8 °F 78% 29.77 in 10.0 mi South 8.1 mph - N/A Rain Light Rain
4:13 AM 73.0 °F - 66.0 °F 79% 29.77 in 10.0 mi South 10.4 mph - N/A   Scattered Clouds
4:33 AM 73.0 °F - 66.2 °F 79% 29.78 in 10.0 mi SW 5.8 mph - N/A   Mostly Cloudy
4:54 AM 72.1 °F - 62.6 °F 72% 29.82 in 10.0 mi West 25.3 mph 31.1 mph N/A   Overcast
5:13 AM 65.5 °F - 61.5 °F 87% 29.83 in 7.0 mi West 11.5 mph 25.3 mph N/A Rain Rain
5:33 AM 64.6 °F - 61.2 °F 89% 29.80 in 10.0 mi Calm Calm - N/A Rain Light Rain
5:54 AM 63.5 °F - 61.2 °F 92% 29.78 in 10.0 mi Calm Calm - N/A Rain Light Rain
6:13 AM 63.7 °F - 61.5 °F 93% 29.77 in 10.0 mi ESE 4.6 mph - N/A   Mostly Cloudy
6:33 AM 63.9 °F - 61.7 °F 93% 29.79 in 10.0 mi SE 6.9 mph - N/A Rain Light Rain
6:54 AM 63.9 °F - 61.5 °F 92% 29.77 in 10.0 mi South 3.5 mph - N/A   Scattered Clouds
7:13 AM 63.9 °F - 61.5 °F 92% 29.73 in 10.0 mi East 3.5 mph - N/A   Clear
7:33 AM 64.9 °F - 62.1 °F 90% 29.77 in 10.0 mi SSE 4.6 mph - N/A   Clear
7:53 AM 65.3 °F - 62.1 °F 89% 29.78 in 10.0 mi South 4.6 mph - N/A   Clear
8:13 AM 66.0 °F - 62.6 °F 89% 29.79 in 10.0 mi SSW 5.8 mph - N/A   Clear
8:33 AM 66.9 °F - 63.3 °F 88% 29.80 in 10.0 mi South 5.8 mph - N/A   Clear
8:53 AM 68.2 °F - 63.7 °F 85% 29.80 in 10.0 mi SSW 8.1 mph - N/A   Clear
9:13 AM 69.3 °F - 63.5 °F 82% 29.80 in 10.0 mi South 5.8 mph - N/A   Clear
9:34 AM 69.3 °F - 61.9 °F 77% 29.81 in 10.0 mi SSW 10.4 mph 16.1 mph N/A   Clear
9:54 AM 70.2 °F - 61.9 °F 75% 29.81 in 10.0 mi SSW 9.2 mph - N/A   Clear
10:13 AM 70.9 °F - 61.2 °F 71% 29.81 in 10.0 mi SSW 11.5 mph 20.7 mph N/A   Clear
10:34 AM 71.4 °F - 61.2 °F 70% 29.80 in 10.0 mi SSW 11.5 mph 18.4 mph N/A   Clear
10:53 AM 71.4 °F - 61.2 °F 70% 29.80 in 10.0 mi SW 6.9 mph - N/A   Clear
11:13 AM 71.6 °F - 61.7 °F 71% 29.80 in 10.0 mi SW 9.2 mph - N/A   Clear
11:34 AM 72.7 °F - 61.3 °F 67% 29.79 in 10.0 mi SW 10.4 mph 17.3 mph N/A   Clear
11:53 AM 73.2 °F - 61.9 °F 68% 29.79 in 10.0 mi SSW 12.7 mph 16.1 mph N/A   Clear
12:13 PM 75.4 °F - 62.8 °F 65% 29.79 in 10.0 mi SSW 9.2 mph - N/A   Clear
12:34 PM 75.4 °F - 61.9 °F 63% 29.79 in 10.0 mi SW 13.8 mph - N/A   Clear
12:53 PM 75.7 °F - 61.5 °F 61% 29.79 in 10.0 mi SSW 10.4 mph 16.1 mph N/A   Scattered Clouds
1:13 PM 76.8 °F - 61.5 °F 59% 29.79 in 10.0 mi SW 13.8 mph 19.6 mph N/A   Scattered Clouds
1:34 PM 76.3 °F - 60.6 °F 58% 29.78 in 10.0 mi SW 12.7 mph 16.1 mph N/A   Clear
1:53 PM 77.4 °F - 61.5 °F 58% 29.77 in 10.0 mi SSW 11.5 mph 17.3 mph N/A   Scattered Clouds
2:13 PM 77.5 °F - 59.9 °F 54% 29.77 in 10.0 mi SW 11.5 mph 23.0 mph N/A   Scattered Clouds
2:34 PM 77.4 °F - 60.3 °F 55% 29.77 in 10.0 mi SSW 11.5 mph 18.4 mph N/A   Mostly Cloudy
2:53 PM 78.6 °F - 61.2 °F 55% 29.76 in 10.0 mi SSW 11.5 mph 16.1 mph N/A   Mostly Cloudy
3:13 PM 79.0 °F - 61.7 °F 55% 29.77 in 10.0 mi WSW 15.0 mph - N/A   Scattered Clouds
3:34 PM 79.2 °F - 61.7 °F 55% 29.77 in 10.0 mi WSW 17.3 mph - N/A   Scattered Clouds
3:53 PM 79.2 °F - 61.7 °F 55% 29.77 in 10.0 mi SW 13.8 mph 24.2 mph N/A   Mostly Cloudy
4:13 PM 80.2 °F 81.3 °F 61.5 °F 53% 29.77 in 10.0 mi WSW 13.8 mph 20.7 mph N/A   Mostly Cloudy
4:34 PM 81.1 °F 82.1 °F 61.9 °F 52% 29.76 in 10.0 mi SW 11.5 mph 18.4 mph N/A   Scattered Clouds
4:53 PM 80.2 °F 81.3 °F 61.7 °F 53% 29.75 in 10.0 mi SW 12.7 mph 16.1 mph N/A   Scattered Clouds
5:14 PM 79.5 °F - 61.2 °F 53% 29.75 in 10.0 mi SW 9.2 mph - N/A   Scattered Clouds
5:33 PM 80.8 °F 81.6 °F 61.0 °F 51% 29.74 in 10.0 mi WSW 11.5 mph 17.3 mph N/A   Scattered Clouds
5:54 PM 81.5 °F 82.2 °F 61.2 °F 50% 29.74 in 10.0 mi SSW 8.1 mph - N/A   Clear
6:13 PM 81.3 °F 82.1 °F 61.0 °F 50% 29.74 in 10.0 mi SW 6.9 mph - N/A   Scattered Clouds
6:33 PM 81.3 °F 81.9 °F 60.3 °F 49% 29.74 in 10.0 mi SSW 12.7 mph - N/A   Scattered Clouds
6:54 PM 81.1 °F 82.0 °F 61.2 °F 51% 29.73 in 10.0 mi SSW 6.9 mph - N/A   Clear
7:13 PM 80.8 °F 81.5 °F 60.4 °F 50% 29.73 in 10.0 mi SW 10.4 mph - N/A   Clear
7:34 PM 80.2 °F 81.1 °F 60.4 °F 51% 29.73 in 10.0 mi SW 8.1 mph 16.1 mph N/A   Clear
7:53 PM 79.7 °F - 61.2 °F 53% 29.73 in 10.0 mi WSW 5.8 mph - N/A   Clear
8:13 PM 79.3 °F - 61.2 °F 54% 29.73 in 10.0 mi SW 8.1 mph - N/A   Clear
8:34 PM 78.3 °F - 61.5 °F 56% 29.72 in 10.0 mi SW 3.5 mph - N/A   Clear
8:53 PM 77.2 °F - 61.7 °F 59% 29.73 in 10.0 mi SSW 4.6 mph - N/A   Clear
9:13 PM 76.1 °F - 61.9 °F 61% 29.73 in 10.0 mi Calm Calm - N/A   Clear
9:34 PM 71.4 °F - 62.1 °F 72% 29.74 in 10.0 mi Calm Calm - N/A   Clear
9:53 PM 72.7 °F - 62.2 °F 70% 29.74 in 10.0 mi Calm Calm - N/A   Scattered Clouds
10:14 PM 70.0 °F - 62.2 °F 76% 29.75 in 10.0 mi Calm Calm - N/A   Scattered Clouds
10:33 PM 68.7 °F - 62.4 °F 80% 29.75 in 10.0 mi Calm Calm - N/A   Scattered Clouds
10:53 PM 69.6 °F - 62.4 °F 78% 29.75 in 10.0 mi Calm Calm - N/A   Clear
11:14 PM 68.4 °F - 62.2 °F 81% 29.75 in 10.0 mi Calm Calm - N/A   Clear
11:33 PM 68.9 °F - 62.1 °F 79% 29.75 in 10.0 mi Calm Calm - N/A   Clear
11:53 PM 68.5 °F - 62.1 °F 80% 29.76 in 10.0 mi Calm Calm - N/A   Scattered Clouds